Location: Wagman Observatory
(40.6260°N, 79.8130°W)
Time: 16:44:12
(UTC-04:00)

Daily predictions for brighter satellites

Satellite Brightness Start Highest point End
(mag) Time Altitude Azimuth Time Altitude Azimuth Time Altitude Azimuth
BREEZE-M R/B 3.1 21:05:26 10° WSW 21:10:49 72° NNW 21:13:46 10° NE
Thor Agena Rocket 3.6 21:05:41 10° NNE 21:11:00 87° ESE 21:16:12 10° SSW
Cosmos 2084 3.7 21:11:01 10° SSW 21:15:12 46° ESE 21:19:11 10° NE
Atlas Centaur 2 3.1 21:14:04 10° SW 21:16:35 16° S 21:18:56 10° SSE
Cosmos 1697 Rocket 4.4 21:11:44 10° NW 21:16:42 32° WSW 21:21:38 10° SSW
Cosmos 2233 Rocket 4.1 21:14:02 10° S 21:20:03 60° E 21:26:09 10° NNE
Cosmos 1500 4.4 21:16:51 10° NNW 21:20:33 45° W 21:24:14 10° SSW
Cosmos 1975 2.9 21:17:54 10° N 21:21:56 64° E 21:25:54 10° SSE
SJ 16-02 3.6 21:23:39 10° NE 21:25:12 12° ENE 21:26:44 10° ENE
Cosmos 2360 Rocket 3.5 21:23:02 10° N 21:27:41 25° NE 21:32:17 10° ESE
Resurs 01 Rocket 1.8 21:23:28 10° S 21:27:52 73° WSW 21:32:17 10° NNW
Spot 2 Rocket 3.5 21:23:41 10° SSE 21:28:43 82° ENE 21:33:47 10° NNW
Cosmos 1980 Rocket 3.2 21:25:11 10° NW 21:30:32 44° WSW 21:35:52 10° S
deb Kosmos-1763 4.0 21:26:58 10° SSW 21:30:39 76° ESE 21:34:22 10° NNE
Cosmos 468 Rocket 4.0 21:26:56 10° SSW 21:32:13 83° ESE 21:37:28 10° NNE
ATLAS CENTAUR R/B 3.4 21:29:09 10° NW 21:33:05 28° WSW 21:37:08 10° S
Cosmos 1937 Rocket 3.8 21:29:05 10° N 21:34:07 52° ENE 21:38:38 13° SE
BREEZE-M DEB (TANK) 2.2 21:31:46 10° WNW 21:34:40 37° SW 21:36:08 15° SSE
ERS-2 3.1 21:31:17 10° S 21:34:50 47° W 21:38:25 10° NNW
Cosmos 1666 2.7 21:31:21 10° N 21:35:14 78° E 21:39:06 10° S
Cosmos 1763 Rocket 3.6 21:33:11 10° S 21:38:23 59° ESE 21:43:34 10° NNE
Meteor 2-9 Rocket 4.5 21:36:27 10° N 21:41:38 47° ENE 21:46:08 14° SSE
Meteor 1-12 Rocket 4.4 21:36:19 10° N 21:42:19 86° E 21:48:20 10° S
Cosmos 841 Rocket 3.8 21:39:03 10° S 21:43:59 45° ESE 21:49:00 10° NNE
USA 32 4.5 21:42:07 10° N 21:47:08 44° E 21:51:10 15° SSE
Cosmos 1743 2.8 21:43:56 10° N 21:47:47 79° W 21:51:34 10° S
MetOp-A 4.3 21:44:35 13° SSE 21:49:14 58° ENE 21:54:29 10° N
SPOT 5 4.2 21:49:27 14° ESE 21:51:55 22° ENE 21:55:24 10° NNE
Cosmos 2333 Rocket 4.4 21:50:59 10° NNE 21:53:14 12° NE 21:55:29 10° ENE
Iridium 2 3.6 21:49:47 10° S 21:53:36 77° E 21:57:26 10° N
COSMOS 2428 4.5 21:52:48 10° N 21:56:48 19° NE 22:00:36 11° E
USA 234 3.3 21:50:50 10° NE 21:57:25 89° NNW 22:04:00 10° SW
Terra 3.9 21:55:07 10° E 21:57:29 14° ENE 21:59:53 10° NNE
Centaur D-1A AC-31 2.9 21:55:51 10° WSW 21:59:13 16° SSW 22:00:42 13° S
Timation 2 Rocket 4.5 21:57:36 10° SW 22:03:29 61° WNW 22:09:31 10° NNE
Cosmos 1833 4.3 21:58:47 10° S 22:04:22 56° ESE 22:09:56 10° NNE
Lacrosse 5 rocket 2.7 22:00:45 10° NNW 22:04:41 32° NE 22:07:25 16° E
Meteor 2-4 Rocket 3.6 21:59:36 10° S 22:05:00 76° E 22:10:35 10° NNE
NOSS 3-2 (C) 4.2 22:00:02 10° SW 22:05:50 56° NW 22:12:19 10° NNE
Cosmos 2034 Rocket 4.4 22:03:34 17° SSE 22:07:53 43° E 22:13:38 10° NNE
ERS-1 Rocket 3.1 22:07:46 21° SE 22:10:59 59° ENE 22:15:55 10° N
Cosmos 1464 Rocket 4.1 22:05:10 11° S 22:11:20 65° E 22:17:39 10° NNE
Abrixas rocket 4.0 22:10:02 10° W 22:13:00 33° NNW 22:15:58 10° NE
ISS -0.8 22:12:03 10° WNW 22:14:23 18° NNW 22:16:42 10° NNE
CSL-04 DEB 4.4 22:12:19 24° SSE 22:14:45 74° ENE 22:18:51 10° N
Cosmos 1025 Rocket 4.3 22:14:38 22° ESE 22:15:25 23° E 22:18:51 10° NE
USA 245 3.4 22:16:24 32° SE 22:17:50 56° ENE 22:22:03 10° N
Cosmos 1898 Rocket 4.5 22:13:11 10° NNW 22:18:12 44° WSW 22:22:49 12° S
Cosmos 1356 3.3 22:17:03 26° S 22:18:50 72° E 22:22:18 10° NNE
Cosmos 1515 3.7 22:17:00 27° SSE 22:18:52 59° E 22:22:39 10° NNE
SPOT 1/Viking Rocket 4.1 22:16:49 24° SE 22:19:28 43° ENE 22:24:21 10° N
ARGOS 3.3 22:15:18 16° S 22:19:37 75° WSW 22:25:03 10° NNW
Cosmos 2322 4.2 22:15:08 10° NNW 22:20:40 47° ENE 22:23:44 25° ESE
Cosmos 2322 Rocket 2.7 22:16:43 10° NNW 22:22:10 54° WSW 22:26:19 17° S
H-2A R/B 1.9 22:19:42 21° SSE 22:23:00 86° WSW 22:28:04 10° NNW
Tiangong 2 1.7 22:20:10 10° W 22:23:17 56° N 22:25:10 21° ENE
Cosmos 1455 Rocket 3.1 22:20:12 10° N 22:24:34 79° W 22:27:13 24° S
Cosmos 2237 Rocket 4.4 22:23:09 10° NNE 22:25:23 12° NE 22:27:37 10° ENE
CENTAUR R/B 2.5 22:19:30 10° SW 22:25:24 86° WNW 22:32:16 10° NE
Cosmos 1340 Rocket 3.1 22:25:14 13° SSW 22:28:42 68° W 22:32:47 10° N
Cosmos 1891 Rocket 4.4 22:24:10 14° S 22:29:31 80° E 22:35:54 10° N
Cosmos 292 Rocket 4.0 22:26:11 10° SSW 22:30:55 69° WNW 22:35:40 10° NNE
Cosmos 1125 Rocket 4.1 22:26:32 10° N 22:31:32 43° ENE 22:33:42 28° ESE
SL-16 R/B 3.1 22:26:15 10° NW 22:31:33 42° WSW 22:35:43 16° S
Meteor 1-29 4.4 22:29:13 10° NE 22:31:30 23° ENE 22:31:30 23° ENE
Shenzhou-11 Module 1.8 22:33:05 10° WNW 22:36:04 73° SSW 22:36:04 73° SSW
DMSP B5D2-2 4.0 22:34:56 10° NNE 22:40:15 77° ESE 22:43:34 23° S
Aureole 2 Rocket 2.9 22:40:08 10° NW 22:42:51 36° WSW 22:43:07 35° WSW
Helios 1A 2.9 22:41:57 43° SSE 22:43:17 80° ENE 22:47:27 10° N
Cosmos 836 Rocket 4.4 22:43:05 25° S 22:46:07 72° ESE 22:51:21 10° NNE
Cosmos 2219 3.8 22:48:54 34° SE 22:49:49 36° ESE 22:55:01 10° NE
Cosmos 2237 4.2 22:44:50 10° NNW 22:50:36 81° ENE 22:52:57 38° SSE
Okean 2 3.3 22:50:55 50° SSE 22:51:55 75° E 22:56:06 10° NNE
Meteor 1-15 Rocket 4.2 22:48:57 10° NNW 22:54:42 81° W 22:57:22 33° S
CZ-4C R/B 3.3 22:52:02 10° NNW 22:59:05 56° NE 23:03:19 28° ESE
Cosmos 1356 Rocket 3.3 23:03:26 58° S 23:04:14 82° E 23:08:33 10° NNE
SJ 16-02 1.4 22:59:53 10° NNW 23:04:19 73° WSW 23:05:18 52° S
Cosmos 1544 3.9 23:02:01 10° N 23:05:13 40° ENE 23:05:13 40° ENE
Okean 1-7 Rocket 4.0 23:05:55 46° E 23:06:06 46° E 23:10:28 10° NNE
COSMOS 2455 4.3 23:07:46 20° E 23:07:46 20° E 23:10:58 10° ENE
Cosmos 2360 Rocket 2.8 23:06:30 10° NW 23:11:54 48° WSW 23:14:04 32° SSW
Cosmos 540 Rocket 4.3 23:06:59 10° SW 23:11:58 49° WNW 23:17:01 10° N
Helios 1B rocket 2.6 23:08:47 10° N 23:12:55 69° WNW 23:13:58 47° SW
Cosmos 2228 4.4 23:09:29 10° NNE 23:12:59 26° ENE 23:12:59 26° ENE
CZ-2C R/B 3.2 23:08:59 10° NNE 23:14:16 40° E 23:14:47 39° ESE
Cosmos 2333 4.2 23:08:41 10° NNW 23:14:22 78° ENE 23:15:58 49° SE
Landsat 7 3.9 23:14:40 48° SSW 23:15:53 68° WSW 23:20:38 10° NNW
Cosmos 2219 Rocket 2.5 23:10:40 10° NNW 23:16:08 52° ENE 23:17:36 41° ESE
Cosmos 1726 Rocket 4.3 23:13:11 10° N 23:17:19 38° ENE 23:17:19 38° ENE
Cosmos 1092 Rocket 4.0 23:12:10 10° N 23:18:33 81° E 23:20:43 44° SSE
Nadezhda 4 Rocket 4.2 23:14:50 10° NNW 23:21:06 67° W 23:23:53 35° SSW
IGS 5A 3.4 23:21:30 69° SW 23:21:49 74° W 23:25:59 10° NNW
SPOT 5 3.8 23:28:41 30° SW 23:29:46 34° W 23:33:56 10° NNW
Cosmos 2058 Rocket 3.9 23:27:29 10° N 23:31:33 38° ENE 23:31:33 38° ENE
Terra 1.9 23:33:59 59° SSW 23:34:39 67° W 23:39:24 10° NNW
Cosmos 2333 Rocket 2.2 23:32:51 10° NNW 23:38:35 71° ENE 23:39:38 57° ESE
CARTOSAT-1 4.1 23:39:20 46° WSW 23:39:38 47° W 23:43:49 10° NNW
COSMOS 2428 2.7 23:35:57 10° NNW 23:41:36 69° WSW 23:42:36 57° SSW
CZ-2C R/B 3.1 23:41:20 61° S 23:42:18 81° WSW 23:47:55 10° NNW
SL-16 R/B 4.1 23:38:30 10° N 23:42:31 19° NE 23:44:53 15° E
Lacrosse 5 rocket 2.6 23:40:03 10° WNW 23:43:05 31° W 23:43:05 31° W
NOSS 0 Rocket 4.1 23:39:08 10° NNW 23:45:21 65° ENE 23:46:47 51° ESE
Cosmos 2026 Rocket 3.8 23:41:55 10° N 23:48:07 86° E 23:49:21 59° SSE
Cosmos 2279 Rocket 3.9 23:50:11 58° SE 23:51:15 69° E 23:57:26 10° NNE
ISS -0.5 23:50:28 10° NNW 23:51:52 12° N 23:53:17 10° NNE
Cosmos 1655 Rocket 4.1 23:45:35 10° N 23:51:54 61° E 23:53:03 53° ESE
Cosmos 1980 4.0 23:47:04 10° NNW 23:52:38 55° ENE 23:53:29 50° E
Cosmos 1953 4.2 23:49:44 10° NNE 23:52:04 21° NE 23:52:04 21° NE
